Latest  Newer  Older  Last 2 hours slideshow  Last 24 hours slideshow  Refresh every 5 minutes 
Current image  Latest image  Rain/snow radar  Cloud coverage sat images 

All time is UTC (add 2 hours to UTC in wintertime, 3 hours to UTC in DST for Latvia local time)


2021/09/20 05:20 EVLA 200520Z AUTO 01004KT 320V050 9999 SCT023/// 04/03 Q1021
2021/09/20 05:20 EVVA 200520Z AUTO 04008KT 9999 BKN028 07/05 Q1022


2021/09/20 05:20 EYSA 200520Z 01010KT CAVOK 04/03 Q1018 NOSIG
2021/09/20 05:20 EYVI 200520Z 01009KT 9999 OVC006 05/04 Q1013 NOSIG
2021/09/20 05:20 EEKA 200520Z 07009KT 010V100 CAVOK 07/03 Q1025
2021/09/20 05:20 EEKE 200520Z 01007KT 9999 FEW020 03/02 Q1023


2021/09/20 05:20 EETU 200520Z 04008KT 010V070 9999 FEW018 05/03 Q1021
   RIGA AIRPORT     EVRA               56 55N  023 58E   10   X     T          6 LV
   LIEPAJA INTL     EVLA        26406  56 31N  021 06E    4   X                8 LV
   VENTPILS         EVVA               57 21N  021 33E    6   X                8 LV
   KAUNAS           EYKA               54 54N  023 55E   77   X     T          6 LT
   PALANGA INTL     EYPA               55 55N  021 03E   10   X                6 LT
   SIAULIAI INTL    EYSA               55 54N  023 24E  135   X     T          6 LT
   VILNIUS INTL     EYVI        26730  54 38N  025 17E  197   X     T          6 LT
   KARDLA           EEKA        26116  58 59N  022 50E    4   X                8 EE
   KURESSAARE       EEKE               58 14N  022 31E    4   X                8 EE
   PARNU            EEPU               58 25N  024 28E   14   X                8 EE
   TALLINN          EETN        26038  59 24N  024 49E   40   X     T          8 EE
   TARTU            EETU               58 19N  026 41E   67   X                8 EE